Regional Weather Roundup
Issued by NWS Goodland, KS

Home | Current Version | Previous Version | Text Only | Print | Product List | Glossary Off
Versions: 1 2 3 4 5 6 7 8 9 10 11 12 13 14 15 16 17 18 19 20 21 22 23 24 25 26 27 28 29 30 31 32 33 34 35 36 37 38 39 40 41 42 43 44 45 46 47 48 49 50

000
ASUS43 KGLD 181959
RWRGLD

GOODLAND FORECAST AREA HOURLY WEATHER ROUNDUP
NATIONAL WEATHER SERVICE GOODLAND KS
200 PM MDT SAT APR 18 2015

...OFFICIAL OBSERVATIONS...

CITY           SKY/WX    TMP DP  RH WIND       PRES   REMARKS
GOODLAND KS    PTSUNNY   61  44  53 SE13      29.81F
HILL CITY KS   PTSUNNY   70  52  52 SE7       29.80F
IMPERIAL NEB   MOSUNNY   63  45  51 SE10      29.82F
MCCOOK NEB     MOSUNNY   67  47  48 S10       29.82F
AKRON CO       PTSUNNY   47  41  80 W16       29.86F
BURLINGTON CO  LGT RAIN  54  42  64 S3        29.83F
LIMON CO       CLOUDY    45  37  73 N14       29.88F
$$

...UNOFFICIAL OBSERVATIONS...

CITY           SKY/WX    TMP DP  RH WIND       PRES   REMARKS
COLBY KS       MOSUNNY   64  48  55 E8        29.82F
GOVE KS          N/A     68  32  26 MISG        N/A
LENORA KS        N/A     67  32  27 MISG        N/A
NORTON KS      MOSUNNY   68  46  45 SE5       29.81F
SHARON SPRINGS   N/A     61  49  65 MISG        N/A
TRIBUNE KS     PTSUNNY   61  45  55 CALM      29.84F
YUMA CO          N/A     52  43  72 CALM        N/A
$$



USA.gov is the U.S. government's official web portal to all federal, state and local government web resources and services.